Location: Bartlow
(52.0833°N, 0.3167°E)
Time: 21:37:27
(UTC+00:00)

Cosmos 2237 Rocket - Pass Details

Date: 26 September 2023
Orbit: 836 x 848 km, 71.0° (Epoch: 10 December)

Event Time Altitude Azimuth Distance (km) Brightness Sun altitude
Rises 04:17:25 0° 330° (NNW) 3,424 5.2 -14.9°
Reaches altitude 10° 04:20:06 10° 339° (NNW) 2,484 4.6 -14.5°
Maximum altitude 04:25:19 35° 45° (NE) 1,334 3.8 -13.8°
Drops below altitude 10° 04:30:30 10° 111° (ESE) 2,468 5.5 -13.0°
Sets 04:33:09 0° 120° (ESE) 3,397 6.1 -12.6°
